{"data":{"norad_id":64747,"intl_designator":"2025-144Z","name":"STARLINK-34589","alt_names":[],"object_type":"PAYLOAD","status":"ACTIVE","operator":null,"country":"US","launch_date":"2025-07-02","launch_site_code":"AFETR","launch_vehicle":null,"mission":null,"orbit_class":"UNKNOWN","rcs_meters":null,"size_class":null,"mass_kg":null,"dimensions":null,"purposes":["comms"],"wikipedia_slug":null,"has_3d_model":false,"image_url":null,"decayed_at":null,"tle_current":{"epoch":"2026-09-20T22:35:40.879968Z","epoch_age_seconds":89513,"freshness":"FRESH","line1":"1 64747U 25144Z   26263.94144537  .00012917  00000+0  39272-3 0  9995","line2":"2 64747  53.1607 339.2965 0001039  83.5364 276.5757 15.34404755 69812","mean_motion":15.34404755,"eccentricity":0.0001039,"inclination_deg":53.1607,"raan_deg":339.2965,"arg_perigee_deg":83.5364,"mean_anomaly_deg":276.5757,"bstar":0.00039272,"rev_number":6981,"period_min":93.847467254492,"perigee_km":461.97834554897,"apogee_km":463.39986921409,"semimajor_km":6840.8261073815,"source":"CELESTRAK","updated_at":"2026-09-21T09:00:35.413969Z"}}}